Helicity
77 79 75 83 84 114 125 100 96 98 84 81 84 89 84 87 92 68 55 92 117 148 144 185 198 214 190 169 237 258 172 169 208 277 323 301 360 323 311 264 214 243 284 255 211 294 225 226 68 193 157 134 57 54
133 86 74 56 54 60 56 44 42 46 42 40 44 53 53 53 36 32 46 63 75 98 169 141 151 149 123 131 159 134 190 218 224 224 298 315 302 249 220 223 229 274 221 231 279 278 144 58 107 99 75 76 80 138
29 44 20 38 37 27 25 30 32 30 29 29 27 28 31 34 26 9 14 19 25 65 74 87 106 108 88 111 88 126 110 176 214 223 241 255 281 225 218 188 170 191 172 182 136 132 186 49 42 61 11 8 27 44
11 16 21 20 18 18 20 24 25 26 25 25 26 22 21 33 41 24 14 13 2 30 74 92 31 30 40 68 82 74 78 111 130 143 142 168 195 179 178 177 186 138 149 127 104 108 95 100 69 56 75 45 28 37
18 22 23 25 30 34 34 33 32 30 27 27 25 22 25 32 43 44 59 74 50 25 69 64 63 71 68 79 76 92 97 99 109 134 150 171 144 170 143 168 126 115 132 167 222 122 81 82 64 93 60 38 45 58
22 25 27 29 32 36 37 39 41 39 37 33 28 28 30 24 42 43 31 90 74 57 30 22 80 58 96 77 57 48 53 68 81 95 105 106 99 117 167 165 94 87 71 39 114 88 39 60 49 51 45 44 67 65
19 23 28 31 32 34 40 41 44 43 35 27 28 40 41 57 86 80 125 158 96 50 58 37 50 47 57 51 81 68 47 51 65 76 87 97 81 116 138 142 141 105 59 69 105 88 64 46 64 45 64 73 75 54
21 28 32 33 45 44 42 40 37 31 25 23 36 61 84 130 131 99 127 127 108 101 95 71 73 59 62 39 31 41 45 57 74 113 112 107 99 120 158 107 119 81 77 68 63 42 36 24 42 71 91 78 64 79
31 36 45 49 43 43 41 37 33 32 27 42 68 102 128 126 105 107 105 104 109 109 102 80 51 56 34 42 29 30 55 58 85 82 95 86 99 129 105 91 80 82 103 88 41 38 44 52 63 77 104 79 75 75
43 45 46 41 39 38 38 37 36 35 43 69 92 102 112 127 86 91 117 113 98 72 53 82 74 53 52 45 27 28 48 41 73 80 66 69 80 61 44 39 48 61 62 80 77 48 35 36 56 89 109 86 74 69
57 50 49 47 43 41 42 42 43 51 67 96 128 141 153 105 117 132 131 144 131 120 102 75 86 58 84 46 59 61 56 55 60 77 81 81 70 96 82 67 91 80 79 91 75 74 64 66 72 91 89 86 76 64
57 55 53 43 44 48 45 50 78 83 102 100 121 168 143 128 122 113 117 129 143 161 159 133 129 88 82 90 48 66 70 87 57 113 101 93 88 134 168 181 172 165 96 62 70 61 70 84 106 110 101 85 73 67
54 56 51 44 42 51 62 85 103 84 83 100 102 122 140 130 136 156 157 185 203 189 165 138 119 104 102 80 79 91 86 121 152 150 143 123 178 210 200 143 118 59 77 77 82 103 100 100 103 101 82 85 80 68
50 49 39 36 34 57 112 114 100 88 86 128 155 163 148 137 153 166 178 217 217 213 199 159 142 136 158 113 103 122 158 174 172 101 119 130 172 193 136 79 67 80 52 40 73 78 88 88 93 98 91 75 65 62
71 53 45 56 110 107 125 120 111 90 133 174 215 181 136 128 140 155 152 168 166 193 200 185 161 159 151 138 141 130 140 103 104 120 134 133 152 122 83 58 24 37 48 61 89 98 97 94 96 87 77 65 60 57
89 73 97 75 83 98 117 148 135 150 191 244 284 194 140 162 129 165 162 143 146 188 188 176 159 157 146 170 182 145 215 202 156 141 130 136 155 123 67 67 80 46 100 102 102 108 108 109 103 93 80 83 80 68
122 204 110 75 80 94 121 182 183 193 248 314 299 161 168 152 157 157 167 156 140 186 210 186 238 199 247 235 274 238 259 167 206 198 186 162 133 120 81 39 83 96 98 114 105 91 89 92 96 92 91 80 73 60
170 127 81 65 73 148 233 220 236 254 364 353 388 235 247 229 183 182 174 214 217 199 214 241 232 313 345 291 252 206 176 204 194 221 207 203 195 190 159 114 92 97 105 125 117 106 106 97 74 59 58 43 35 40
143 133 72 61 96 171 236 255 311 383 307 336 349 305 309 290 295 213 176 232 193 214 201 253 267 363 302 304 210 237 244 243 263 269 244 304 269 267 265 185 163 127 142 143 143 130 117 122 94 85 72 54 49 48
50 39 35 37 62 171 274 326 326 489 486 382 388 327 340 343 265 256 223 236 268 245 256 276 274 236 312 366 329 271 240 182 142 139 152 206 178 195 182 204 177 143 175 156 135 144 132 113 98 110 116 135 123 99
87 119 65 79 192 229 284 362 433 429 403 404 361 360 335 338 323 319 298 276 228 238 260 294 349 353 365 344 288 222 208 199 190 157 140 125 154 151 166 154 139 164 201 185 179 165 143 110 112 144 178 160 130 120
198 103 191 196 231 269 372 409 470 429 380 426 417 383 369 325 257 280 297 308 288 341 395 396 387 370 323 316 326 341 279 231 188 167 167 158 146 162 161 146 145 172 177 183 187 169 151 146 144 134 100 92 91 89
112 171 225 220 220 299 379 376 426 461 481 453 388 407 451 405 358 345 318 419 458 473 439 411 381 380 363 332 331 353 284 203 113 124 131 129 120 100 113 135 149 160 162 157 167 143 123 104 104 103 100 97 88 82
105 179 232 244 279 351 410 417 484 516 527 486 451 422 432 444 423 473 557 529 522 525 571 499 397 408 346 258 187 125 63 46 38 23 12 14 59 83 112 112 109 127 123 108 119 95 82 78 83 83 85 85 74 71
148 219 252 291 281 286 350 361 289 259 349 295 281 313 225 113 174 227 205 129 126 172 210 192 140 105 68 27 -5 -35 -69 -66 -61 -47 23 57 85 114 117 105 87 86 91 73 76 70 75 79 75 72 80 59 66 69
286 316 329 344 320 275 261 174 161 157 151 134 170 68 59 47 109 186 204 199 175 154 123 63 -7 -54 -94 -121 -119 -108 -62 14 27 42 62 89 103 111 111 97 89 72 97 92 82 76 73 69 67 66 67 70 67 56
242 250 186 53 68 17 2 -30 36 56 68 59 72 67 111 113 183 242 115 84 29 -61 -125 -164 -176 -154 -111 -48 -11 22 49 58 59 82 99 79 54 58 69 90 101 93 105 93 95 75 66 60 54 53 52 57 40 28
119 94 78 67 -8 16 35 62 67 87 125 163 156 132 211 243 264 136 96 60 15 -35 -48 -39 -14 30 56 64 76 82 68 64 62 50 43 44 45 60 88 94 89 55 81 100 90 80 74 72 68 37 45 44 30 25
102 94 75 74 60 54 88 109 138 150 106 75 110 142 202 202 151 119 105 92 78 78 101 109 108 91 66 62 56 52 54 53 49 46 53 69 78 104 106 115 109 108 115 113 57 53 52 60 71 75 42 38 36 31
88 62 70 75 78 80 120 89 77 118 116 134 162 158 150 152 142 129 115 102 95 97 94 89 83 81 76 73 75 73 53 53 102 121 100 93 103 107 106 103 116 121 110 108 109 89 33 47 55 84 62 48 39 19
94 97 103 111 110 124 120 91 108 123 115 104 119 133 124 97 77 73 62 53 66 82 88 83 67 64 52 40 52 67 88 85 98 125 145 139 145 147 149 166 158 153 156 130 109 100 77 67 83 74 63 36 18 12
111 136 124 139 132 133 105 112 123 109 89 87 87 73 74 84 78 78 72 99 92 87 78 98 127 116 116 124 125 132 75 117 119 113 102 125 145 163 184 184 164 137 121 110 103 95 75 73 81 75 58 -11 -6 -9
138 141 144 137 143 139 176 113 125 100 91 79 91 97 101 96 82 87 88 95 118 146 149 151 183 212 203 152 152 145 107 140 113 41 7 -6 -7 16 6 33 82 142 124 111 94 87 85 80 79 66 62 44 1 -12
Wind_Speed
29 30 33 37 40 45 49 52 55 59 62 64 65 66 68 67 66 62 56 60 58 61 67 63 58 60 65 64 70 70 76 64 63 66 69 69 73 66 70 67 73 74 72 77 76 89 97 61 65 79 74 77 82 78
33 34 37 40 45 47 49 52 55 58 60 62 63 65 67 67 63 63 59 62 59 56 63 60 60 56 53 56 60 56 61 60 56 62 63 66 70 69 78 94 64 81 71 79 67 78 67 59 59 58 63 66 66 66
37 39 40 43 46 48 51 54 57 60 62 64 64 66 67 68 63 61 63 62 59 61 63 54 53 49 50 50 48 62 57 54 58 53 65 68 77 74 85 80 74 64 58 73 74 54 57 51 53 56 57 58 57 59
41 43 46 47 50 53 55 58 60 62 64 65 66 67 67 67 63 62 61 59 56 59 66 55 44 57 46 50 49 48 56 56 56 56 63 67 73 61 74 72 71 58 57 64 67 56 49 47 53 54 57 58 60 63
49 50 51 53 54 57 59 62 64 65 67 68 68 68 67 65 63 58 52 50 53 59 68 67 64 47 47 51 52 48 50 50 54 56 59 66 58 64 62 66 68 49 49 52 53 48 46 49 51 53 62 65 65 68
53 54 55 56 58 60 63 65 67 68 68 69 70 69 67 64 60 55 57 46 56 56 62 71 54 52 48 50 50 48 46 45 50 54 54 48 41 46 57 58 42 40 40 38 42 40 40 48 51 49 61 66 67 67
55 56 57 58 60 62 64 67 69 70 71 72 73 69 65 59 50 55 57 53 55 52 61 69 63 44 47 49 48 46 42 45 45 45 44 44 42 41 46 55 41 37 31 31 36 41 46 45 51 59 62 63 63 61
56 57 57 58 60 61 62 62 65 67 70 73 70 62 55 48 43 49 47 57 57 53 50 59 60 56 49 53 54 46 53 47 41 44 42 43 42 39 47 39 32 29 30 31 37 44 44 48 56 61 63 63 67 64
56 58 58 59 60 60 62 62 63 63 67 67 59 49 46 49 53 55 60 51 42 41 51 51 58 62 49 51 52 50 47 50 40 41 39 40 38 39 36 35 31 26 28 32 45 46 53 63 71 71 68 63 58 58
56 55 58 58 58 59 60 62 63 62 62 56 52 54 57 48 52 49 49 50 46 45 40 46 43 53 52 57 54 55 45 48 49 41 38 36 41 36 35 32 29 26 27 39 51 63 72 74 72 70 63 56 50 53
52 52 52 54 56 58 58 60 62 64 56 57 60 56 49 50 47 47 49 49 47 46 40 41 44 53 49 56 57 48 51 48 49 43 42 44 45 35 35 35 36 37 37 42 54 65 71 73 77 74 66 57 53 54
53 55 56 57 56 55 57 56 60 56 53 51 49 45 44 44 43 46 45 44 44 48 42 47 47 46 49 48 49 45 49 44 48 44 46 47 38 39 40 40 44 49 53 64 71 82 83 77 74 71 68 65 61 57
52 54 53 54 55 55 57 51 47 50 50 47 44 47 45 40 46 46 52 48 49 43 41 44 51 49 48 42 46 45 44 45 45 46 48 41 34 39 43 47 54 62 72 77 82 80 77 72 65 69 75 71 68 68
52 51 52 49 50 45 41 49 48 48 50 53 50 54 45 44 40 40 43 46 43 41 43 44 50 48 47 50 44 47 44 44 47 46 47 38 38 44 49 57 71 80 81 83 81 79 76 75 72 67 68 73 75 75
52 50 50 48 42 40 44 47 47 44 44 47 43 51 38 36 39 40 40 44 41 40 43 48 48 46 45 45 41 44 46 44 43 47 44 40 41 46 61 72 77 80 81 79 77 77 77 76 74 72 69 69 70 73
53 55 45 36 37 40 44 47 46 43 41 40 35 38 40 44 44 43 43 47 38 38 38 40 47 48 43 39 39 41 48 53 52 45 46 48 55 61 69 72 75 74 75 76 76 76 76 75 75 74 71 70 72 76
53 46 45 42 40 41 46 46 46 45 39 38 39 29 37 46 48 51 47 47 36 36 46 43 45 43 40 45 50 46 54 57 54 53 53 56 60 63 65 68 68 68 70 72 74 74 73 72 73 73 74 75 76 76
59 53 52 49 46 48 45 37 44 45 50 37 46 42 39 41 46 48 46 40 38 42 44 46 42 41 47 58 57 53 53 55 55 55 58 58 59 62 65 65 66 67 68 69 72 74 71 72 72 72 74 75 77 77
58 56 53 50 46 49 51 44 39 57 45 45 47 47 50 54 51 52 53 45 39 41 41 42 43 51 51 52 56 59 60 60 62 64 63 57 62 65 66 65 66 64 68 69 72 74 77 76 75 75 77 78 82 81
63 59 53 48 46 47 53 50 38 52 62 54 52 56 58 60 61 55 53 46 44 47 47 51 55 57 59 58 56 56 56 58 61 66 63 59 62 66 66 67 68 69 70 72 73 75 78 78 75 79 81 86 86 86
67 62 56 48 49 44 53 52 51 53 56 62 59 59 65 60 61 61 60 45 48 51 56 55 58 58 54 52 51 51 54 57 61 62 65 69 69 69 70 67 69 71 74 77 79 79 81 83 85 85 87 85 84 84
65 56 61 51 52 48 54 46 56 56 58 63 64 63 68 68 65 59 50 49 55 56 57 58 57 56 53 54 54 55 57 58 58 60 63 67 75 77 75 74 77 80 80 81 79 82 81 80 81 81 80 80 80 79
62 54 56 53 60 58 66 49 59 56 64 66 65 68 66 65 60 48 54 53 53 56 55 54 53 51 50 50 51 55 58 61 62 65 67 68 70 72 73 75 75 80 81 77 73 76 77 79 79 80 79 80 81 81
49 53 56 60 55 64 56 60 59 65 67 70 72 73 69 66 62 58 62 59 56 52 53 52 53 56 54 55 61 60 61 62 67 69 68 74 80 79 76 76 71 68 68 67 69 71 73 75 78 76 77 80 79 81
56 53 54 58 54 60 63 66 60 60 64 69 68 66 63 58 61 60 58 49 46 50 54 53 55 57 60 61 62 64 65 70 76 82 78 74 77 78 77 70 65 62 63 63 68 70 72 73 74 75 76 76 80 80
56 56 56 66 66 65 67 71 69 73 72 67 65 65 59 64 64 63 55 47 51 56 60 63 66 68 68 69 73 75 76 74 74 79 76 70 73 74 73 71 69 65 56 60 66 67 69 69 72 74 74 76 79 79
56 58 57 55 62 60 63 59 62 66 67 67 67 68 65 66 63 54 48 54 62 64 64 64 65 68 69 70 68 68 68 68 68 71 72 70 65 60 59 62 65 62 60 62 60 64 62 61 67 72 69 71 73 73
53 58 72 74 63 60 63 63 63 62 58 60 70 63 67 64 64 58 59 59 58 58 58 57 55 57 60 61 63 66 68 69 72 71 67 62 58 56 55 55 52 59 63 60 58 55 55 54 59 61 61 68 72 70
54 60 63 60 58 53 52 53 55 53 57 62 60 58 55 53 52 55 51 48 45 45 47 49 51 52 55 58 62 63 66 70 78 83 83 79 74 65 56 57 58 57 56 56 56 53 49 47 46 55 62 65 66 65
47 53 49 48 50 47 45 49 52 51 48 44 44 47 46 45 43 39 36 34 33 36 41 46 52 60 68 73 77 77 70 64 61 66 74 73 67 64 63 60 58 55 54 52 50 46 39 47 52 48 60 65 65 66
43 44 42 41 41 39 42 43 43 43 39 37 35 35 39 41 37 29 24 22 25 30 39 46 53 57 66 74 75 76 79 70 62 56 50 49 49 48 47 43 43 44 45 44 43 39 36 35 37 35 45 70 72 69
43 45 50 50 48 45 48 53 46 40 37 37 35 34 35 34 37 33 26 20 24 30 35 41 48 55 60 63 61 58 56 56 56 54 50 44 42 37 30 32 31 32 37 37 34 35 36 34 28 22 22 56 69 69
42 43 42 42 46 48 52 59 48 49 41 40 38 36 35 35 35 34 34 20 19 26 31 38 44 46 51 55 49 48 49 47 41 38 38 48 47 45 67 58 45 41 37 38 38 38 37 31 26 25 27 14 37 59
Wind_Direction
14 4 359 352 347 345 342 338 339 340 337 337 338 338 337 336 336 332 328 332 325 317 315 319 321 318 315 313 309 314 314 315 313 308 309 309 309 311 311 312 313 311 311 310 310 308 307 326 323 319 320 324 325 328
7 355 351 347 349 344 343 343 346 347 346 344 342 342 341 340 341 338 330 331 329 318 316 319 321 324 320 317 315 315 313 314 316 311 310 311 307 309 310 306 312 305 305 308 310 310 325 329 328 331 333 333 334 335
16 12 8 2 358 355 352 349 347 346 345 344 343 342 341 340 341 341 335 336 332 324 320 322 322 325 329 329 324 314 316 317 313 314 309 306 303 309 307 308 310 312 314 308 312 324 329 334 336 337 338 339 339 337
17 13 8 4 1 358 354 352 351 349 347 346 345 343 343 342 343 342 340 341 337 329 321 325 336 326 333 333 329 320 315 317 316 315 310 307 307 314 309 311 310 315 318 315 312 318 330 339 340 341 342 342 340 339
22 17 11 6 3 0 357 353 350 347 346 345 343 343 343 343 344 345 347 349 350 336 322 321 325 331 336 333 331 329 325 323 318 315 309 307 313 312 311 312 310 320 322 322 323 332 334 335 340 343 341 342 342 340
17 12 8 5 2 359 357 355 353 351 349 346 345 343 342 342 343 342 336 347 347 346 329 322 333 330 334 337 337 334 333 329 322 320 319 321 326 322 318 317 331 333 332 334 334 340 342 340 342 347 342 342 342 341
10 8 7 5 3 360 358 356 355 353 350 347 346 345 346 348 350 339 335 343 350 347 331 323 325 336 339 338 339 337 340 332 329 327 324 321 327 327 320 316 329 332 339 345 349 347 341 344 341 341 342 343 343 344
12 11 10 8 7 6 5 4 1 359 355 352 350 351 354 1 2 347 350 343 340 337 336 327 325 328 344 335 333 342 333 332 329 327 328 324 328 326 320 326 336 339 342 344 344 344 345 344 340 339 342 344 342 344
9 7 6 7 6 5 4 3 2 1 358 358 360 3 360 353 347 344 343 352 357 344 334 333 330 327 346 342 340 340 342 333 339 329 327 329 326 322 330 331 335 335 338 340 337 342 342 338 334 335 340 344 345 345
6 6 4 2 2 1 0 1 1 0 360 2 6 356 345 354 351 354 351 348 348 347 348 338 348 337 344 342 339 339 341 337 332 334 338 331 324 324 329 335 340 345 341 338 334 332 332 333 335 336 339 343 344 343
5 5 4 3 0 359 359 359 360 1 6 3 356 351 354 353 351 350 346 346 348 343 345 345 344 338 346 339 337 341 336 334 330 332 328 328 325 332 342 344 346 346 342 337 333 331 331 331 330 332 335 340 341 341
358 356 355 355 355 356 356 357 360 3 2 358 355 357 359 358 354 349 348 349 345 343 345 341 341 342 341 342 339 341 336 337 328 334 326 324 330 335 337 339 340 339 335 329 328 324 326 329 329 329 332 335 338 338
352 352 352 352 351 352 353 359 5 5 2 4 4 359 360 360 346 345 342 342 341 345 347 344 339 339 340 343 337 337 335 330 338 330 325 325 330 335 335 336 333 333 329 327 326 328 330 332 336 331 327 330 333 334
349 349 348 349 348 352 1 360 2 4 2 356 356 347 350 346 344 343 343 343 345 345 344 342 336 335 334 331 335 331 332 335 331 329 327 335 332 330 331 331 327 325 327 327 328 329 330 331 332 334 332 329 329 330
344 345 344 345 353 354 354 355 357 0 357 352 355 344 344 343 341 341 342 340 339 342 341 337 333 333 331 327 332 330 329 329 331 330 337 341 338 332 327 326 326 326 327 328 330 330 330 330 331 331 333 334 333 332
339 339 344 348 348 349 347 349 351 353 353 350 347 344 341 338 334 330 329 331 340 342 344 339 333 331 326 331 331 324 323 320 325 331 333 333 329 327 326 326 327 327 327 328 329 329 329 329 329 329 331 333 332 331
335 334 339 339 337 338 340 343 345 341 343 344 341 337 328 329 328 327 326 327 337 335 330 331 326 323 332 323 318 320 314 317 323 324 328 328 328 329 330 329 329 330 330 330 330 330 329 330 329 329 328 329 330 331
321 323 325 327 328 329 330 330 332 331 327 322 325 326 327 324 325 325 325 324 324 321 323 317 320 311 312 312 312 316 320 323 324 324 325 327 329 330 331 329 329 330 330 330 331 332 332 331 330 329 329 329 329 330
320 321 320 322 325 325 324 325 324 321 316 322 320 321 322 321 317 314 316 316 312 318 320 320 312 310 305 310 312 316 320 322 321 322 325 327 328 329 329 329 329 330 331 330 329 328 328 328 327 328 328 328 326 327
320 320 317 317 319 319 317 317 319 316 317 318 317 316 317 317 319 318 316 314 312 312 307 307 303 304 308 313 316 317 320 323 324 323 326 330 332 331 329 328 328 328 328 327 326 325 325 326 327 327 326 324 323 322
317 319 319 316 312 303 308 311 310 315 318 314 318 316 317 320 317 316 315 315 310 309 307 310 312 315 317 317 319 319 320 322 322 324 324 324 327 328 329 329 330 329 327 326 324 324 324 322 322 323 323 323 323 321
315 318 318 315 308 309 303 302 308 313 310 310 313 315 313 312 312 315 322 314 312 313 316 317 319 321 320 320 323 325 325 324 325 326 327 327 324 325 326 326 325 323 323 323 324 323 324 324 325 326 326 326 326 326
314 314 313 311 307 304 306 310 304 307 306 311 315 314 315 315 316 321 316 321 323 326 324 323 326 328 327 327 328 329 329 327 325 326 327 328 328 327 326 326 325 323 322 323 326 325 326 326 326 325 325 325 324 324
313 314 314 313 309 312 317 311 312 313 312 311 313 313 316 319 322 316 313 317 322 330 332 332 332 328 329 329 325 328 329 328 325 325 326 325 325 325 326 325 324 325 326 326 327 327 328 328 328 327 327 325 324 322
318 322 325 319 329 327 324 324 327 327 323 323 321 321 323 329 325 324 323 326 331 335 336 337 334 332 330 328 328 326 326 325 324 322 324 325 325 325 326 327 327 328 330 327 327 327 328 329 330 329 328 328 324 323
319 327 324 324 323 322 322 319 320 321 321 321 322 324 325 322 321 320 323 326 328 329 330 329 327 325 324 324 322 322 323 326 326 324 326 329 327 326 326 326 327 328 332 332 329 328 328 329 330 330 329 328 325 323
327 326 330 336 328 325 323 323 325 324 323 323 325 324 323 319 321 325 328 327 325 326 327 327 326 325 324 325 327 329 330 331 330 329 329 330 330 329 328 326 325 326 329 329 329 329 329 330 330 329 330 330 328 326
339 336 329 330 332 331 326 327 328 329 330 331 328 324 322 322 321 325 326 328 329 330 331 333 334 335 335 335 335 335 335 335 334 335 335 336 337 336 334 334 333 330 328 328 329 329 330 329 329 330 332 330 327 328
345 343 342 339 341 342 341 340 338 338 336 333 330 328 328 331 332 331 334 338 342 346 347 348 349 350 347 346 343 342 340 337 333 330 329 330 332 336 340 339 337 337 337 335 334 334 333 333 331 329 328 329 328 328
6 3 2 0 357 357 356 353 347 346 346 344 341 338 338 341 345 348 351 355 359 360 359 357 353 348 343 340 337 337 340 341 339 335 331 331 333 336 336 337 338 339 340 340 339 339 340 337 332 331 323 323 324 322
21 21 20 18 13 11 6 1 359 358 0 4 4 359 357 359 4 11 14 15 11 6 358 354 351 351 348 344 343 340 337 340 341 340 339 338 337 338 339 339 340 340 340 342 344 345 344 342 341 339 334 308 302 308
26 25 16 13 12 15 14 11 11 16 19 19 22 24 20 18 12 16 22 26 13 4 359 355 351 348 348 348 347 347 345 344 344 343 343 343 342 340 337 337 340 345 345 345 346 346 345 343 341 337 336 264 282 289
26 27 28 26 22 21 17 13 21 18 25 25 27 27 26 24 21 23 21 26 15 6 1 358 353 350 351 351 350 350 352 354 354 352 352 351 350 348 335 341 348 346 349 348 348 348 348 348 345 342 343 326 252 269